Location: Borbetomagus
(49.6328°N, 8.3592°E)
Time: 20:27:15
(UTC+00:00)

GEOS 3 Rocket - Pass Details

Date: 19 May 2025
Orbit: 782 x 832 km, 115.0° (Epoch: 20 June)

Event Time Altitude Azimuth Distance (km) Brightness Sun altitude
Exits shadow 23:21:51 - 112° (ESE) 2,529 6.0 -20.4°
Reaches altitude 10° 23:22:19 10° 111° (ESE) 2,346 5.8 -20.4°
Maximum altitude 23:27:11 48° 38° (NE) 1,034 4.5 -20.4°
Drops below altitude 10° 23:32:07 10° 326° (NW) 2,381 6.8 -20.4°
Sets 23:34:29 0° 321° (NW) 3,322 7.5 -20.3°
